Location: Birkenwerder
(52.6919°N, 13.2774°E)
Time: 22:39:54
(UTC+00:00)

STARLINK-1268 - Pass Details

Date: 07 June 2020
Orbit: 370 x 372 km, 53.0° (Epoch: 11 July)

Event Time Altitude Azimuth Distance (km) Brightness Sun altitude
Exits shadow 01:32:01 - 253° (WSW) 1,679 5.6 -8.1°
Reaches altitude 10° 01:32:41 10° 252° (WSW) 1,405 5.2 -8.0°
Maximum altitude 01:35:49 78° 167° (SSE) 397 2.8 -7.8°
Drops below altitude 10° 01:38:58 10° 80° (E) 1,409 6.4 -7.5°
Sets 01:41:02 0° 79° (E) 2,263 7.5 -7.3°
